Location: Poughquag
(41.6090°N, 73.6820°W)
Time: 04:38:14
(UTC-04:00)

X-37B - Visible Passes

Search period start: 10 June 2023 00:00
Search period end: 20 June 2023 00:00
Orbit: 277 x 277 km, 45.0° (Epoch: 01 November)

Date Brightness Start Highest point End Pass type
(mag) Time Alt. Az. Time Alt. Az. Time Alt. Az.
10 Jun 0.3 04:14:01 20° SW 04:15:25 48° SSE 04:17:48 10° ENE visible
11 Jun -0.2 04:14:26 18° WSW 04:16:04 87° SSE 04:18:32 10° ENE visible
12 Jun 0.4 04:14:48 14° W 04:16:47 58° NNW 04:19:12 10° ENE visible
13 Jun 2.8 02:45:08 14° E 02:45:08 14° E 02:45:39 10° E visible
13 Jun 1.0 04:15:09 10° W 04:17:31 42° N 04:19:53 10° ENE visible
14 Jun 2.4 02:45:29 20° ENE 02:45:29 20° ENE 02:46:25 10° ENE visible
14 Jun 1.4 04:15:59 10° WNW 04:18:17 35° N 04:20:35 10° ENE visible
15 Jun 2.1 02:45:51 25° ENE 02:45:51 25° ENE 02:47:06 10° ENE visible
15 Jun 1.6 04:16:47 10° WNW 04:19:04 33° N 04:21:21 10° ENE visible
16 Jun 2.0 02:46:15 29° NE 02:46:15 29° NE 02:47:46 10° ENE visible
16 Jun 1.5 04:17:32 10° WNW 04:19:50 35° N 04:22:09 10° ENE visible
17 Jun 1.9 02:46:42 31° NNE 02:46:42 31° NNE 02:48:28 10° ENE visible
17 Jun 1.1 04:18:14 10° WNW 04:20:36 43° N 04:22:58 10° E visible
18 Jun 1.9 02:47:17 31° NNE 02:47:17 31° NNE 02:49:12 10° ENE visible
18 Jun 0.4 04:18:54 10° WNW 04:21:20 61° NNE 04:23:46 10° E visible
19 Jun 1.8 02:48:04 32° NNE 02:48:04 32° NNE 02:49:59 10° ENE visible
19 Jun -0.2 04:19:35 10° WNW 04:22:02 82° SSW 04:24:29 10° ESE visible
